星链-30917 (STARLINK-30917 )

导读

STARLINK-30917是美国太空探索技术公司(SpaceX)星链互联网星座中的一员,于2023年11月22日发射升空。它隶属于星链星座的近地轨道组网部署,旨在为全球用户提供低延迟、高速率的宽带互联网服务,进一步完善星链星座的全球覆盖能力,补充星座的通信服务节点,推动星链项目的规模化组网进程。

基本信息
目录编号:
58419
目录名称:
STARLINK-30917
国际标识:
2023-180T
轨道中心:
EARTH
卫星名称:
星链-30917
卫星全名:
星链-30917 (STARLINK-30917 )
卫星状态:
在轨 (已飞行1024 天)
发射日期:
2023-11-22 UTC
国别 :
美国 (US)
星等 :
--
该卫星已列入 空间交会检测服务 Space Conjunction Data Service (SCDS) ,当前飞行风险评估等级: 无高风险
轨道信息
数据来源 国际轨道数据 AOE轨道数据
星历时间 2026-09-11T15:13:58+0800
11小时前
查看轨道信息
2026-09-07T06:00:00+0800
4天前
查看轨道信息
半长轴 6861.207km 6861.203km
偏心率 0.0001727 0.0001406
轨道倾角 43.004° 43.006°
近地点辐角 277.016° 270.687°
升交点赤经 335.524° 0.288°
平近点角 83.050° 68.393°
近地点 481.885km 482.101km
远地点 484.255km 484.031km
周期 94.267分钟 94.267分钟
每日圈数 15.275732 15.275746
详细信息
固有亮度:
5
最大亮度:
0.3
卫星平台:
Starlink v2.0 mini
覆盖范围:
全球
运营商:
太空探索技术公司
运营商所在国:
美国
制造商(研发单位):
太空探索技术公司
制造商所在国:
美国
使用方式:
暂无
卫星简介
星链(Starlink)计划是由太空探索技术公司(SpaceX)提出的一个巨型低轨卫星互联网星座项目,计划在2019年至2024年间在太空搭建由约1.2万颗卫星组成的“星链”网络,其中1584颗将部署在地球上空550千米处的近地轨道,并从2020年开始工作。该卫星仍在工作。
2D轨道图
3D轨道图
轨道高度分析图
轨道倾角分析图
轨道综合分析图
查看轨道综合分析图
交会数据列表
事件ID 空间交会对象 最接近时刻(TCA) 交会距离 交会风险概率(CRP) 交会风险指数(CRI) 操作
CDM_260913-234805-841906-634421
2026-09-13T
23:48:15+0000
0.997 km
远距离
1.691309E-5 中风险 0.6
CDM_260914-051705-841906-634421
2026-09-14T
05:17:47+0000
1.714 km
极远距离
2.81379E-6 低风险 0.44
CDM_260914-065105-841906-634421
2026-09-14T
06:51:56+0000
2.124 km
极远距离
1.619184E-6 低风险 0.39
CDM_260910-070301-051705-841924
2026-09-10T
07:03:11+0000
2.418 km
极远距离
6.996183E-7 极低风险 0.32
与全量物体交会距离演化趋势
与全量物体交会风险概率演化趋势